Location: Conflandey
(47.7287°N, 6.0456°E)
Time: 02:19:37
(UTC+00:00)

Cosmos 332 Rocket - Pass Details

Date: 24 October 2021
Orbit: 682 x 703 km, 74.0° (Epoch: 05 December)

Event Time Altitude Azimuth Distance (km) Brightness Sun altitude
Rises 17:39:26 0° 186° (S) 3,073 7.3 -12.1°
Reaches altitude 10° 17:41:48 10° 181° (S) 2,158 6.4 -12.5°
Maximum altitude 17:46:30 51° 106° (ESE) 874 3.9 -13.3°
Drops below altitude 10° 17:51:13 10° 31° (NNE) 2,163 6.0 -14.1°
Enters shadow 17:53:33 - 27° (NNE) 3,071 6.8 -14.5°
